H1 CPF 2 NER 2021 11 23 9 327 01 glonass142 H2 2001801 9142 45358 2021 11 23 0 0 0 2021 11 26 23 45 0 900 1 1 0 0 0 1 H9 10 0 59541 0.00000 0 17315863.971 -9900252.784 15935073.028 10 0 59541 900.00000 0 15981932.768 -8279430.782 18106396.064 10 0 59541 1800.00000 0 14639594.398 -6357739.575 19926974.682 10 0 59541 2700.00000 0 13346597.203 -4166886.378 21361570.930 10 0 59541 3600.00000 0 12155017.423 -1749848.270 22382404.422 10 0 59541 4500.00000 0 11109096.128 840657.294 22969684.185 10 0 59541 5400.00000 0 10243422.017 3544108.660 23111989.160 10 0 59541 6300.00000 0 9581535.171 6294444.271 22806490.411 10 0 59541 7200.00000 0 9135009.487 9022562.918 22059010.855 10 0 59541 8100.00000 0 8903051.833 11658958.105 20883921.020 10 0 59541 9000.00000 0 8872634.711 14136379.012 19303872.104 10 0 59541 9900.00000 0 9019157.235 16392408.873 17349370.475 10 0 59541 10800.00000 0 9307607.296 18371854.786 15058200.532 10 0 59541 11700.00000 0 9694176.848 20028850.116 12474705.711 10 0 59541 12600.00000 0 10128263.126 21328582.044 9648940.263 10 0 59541 13500.00000 0 10554772.061 22248571.999 6635707.074 10 0 59541 14400.00000 0 10916627.041 22779454.959 3493499.326 10 0 59541 15300.00000 0 11157376.949 22925224.329 283366.140 10 0 59541 16200.00000 0 11223792.699 22702931.489 -2932275.827 10 0 59541 17100.00000 0 11068341.378 22141852.106 -6090861.401 10 0 59541 18000.00000 0 10651431.953 21282153.964 -9130902.032 10 0 59541 18900.00000 0 9943335.766 20173122.377 -11993192.269 10 0 59541 19800.00000 0 8925698.673 18871018.221 -14621973.047 10 0 59541 20700.00000 0 7592579.005 17436659.407 -16966027.896 10 0 59541 21600.00000 0 5950965.622 15932828.462 -18979689.792 10 0 59541 22500.00000 0 4020752.499 14421616.256 -20623738.201 10 0 59541 23400.00000 0 1834169.503 12961814.591 -21866168.203 10 0 59541 24300.00000 0 -565307.872 11606468.016 -22682816.447 10 0 59541 25200.00000 0 -3124524.960 10400688.305 -23057831.689 10 0 59541 26100.00000 0 -5782625.460 9379823.560 -22983980.875 10 0 59541 27000.00000 0 -8473357.697 8568058.616 -22462785.187 10 0 59541 27900.00000 0 -11127613.520 7977504.893 -21504483.805 10 0 59541 28800.00000 0 -13676093.857 7607816.957 -20127826.647 10 0 59541 29700.00000 0 -16051989.957 7446350.630 -18359700.613 10 0 59541 30600.00000 0 -18193568.713 7468854.498 -16234597.169 10 0 59541 31500.00000 0 -20046554.565 7640664.153 -13793932.162 10 0 59541 32400.00000 0 -21566209.266 7918347.302 -11085231.632 10 0 59541 33300.00000 0 -22719023.549 8251728.859 -8161199.954 10 0 59541 34200.00000 0 -23483951.097 8586209.356 -5078689.009 10 0 59541 35100.00000 0 -23853134.593 8865277.672 -1897588.885 10 0 59541 36000.00000 0 -23832095.003 9033111.217 1320337.905 10 0 59541 36900.00000 0 -23439377.727 9037153.202 4512655.629 10 0 59541 37800.00000 0 -22705672.024 8830557.936 7617464.540 10 0 59541 38700.00000 0 -21672442.034 8374400.868 10574596.619 10 0 59541 39600.00000 0 -20390127.895 7639560.256 13326774.860 10 0 59541 40500.00000 0 -18915993.131 6608191.315 15820714.166 10 0 59541 41400.00000 0 -17311708.786 5274730.803 18008143.305 10 0 59541 42300.00000 0 -15640775.370 3646389.737 19846729.024 10 0 59541 43200.00000 0 -13965889.920 1743113.047 21300885.551 10 0 59541 44100.00000 0 -12346367.338 -402992.986 22342454.957 10 0 59541 45000.00000 0 -10835722.662 -2748742.769 22951246.145 10 0 59541 45900.00000 0 -9479513.979 -5241419.388 23115422.901 10 0 59541 46800.00000 0 -8313534.814 -7820725.970 22831733.962 10 0 59541 47700.00000 0 -7362430.488 -10421061.173 22105580.741 10 0 59541 48600.00000 0 -6638795.437 -12974026.284 20950921.100 10 0 59541 49500.00000 0 -6142788.774 -15411061.633 19390010.303 10 0 59541 50400.00000 0 -5862284.128 -17666104.302 17452983.127 10 0 59541 51300.00000 0 -5773547.635 -19678157.821 15177283.937 10 0 59541 52200.00000 0 -5842416.067 -21393667.684 12606954.351 10 0 59541 53100.00000 0 -6025926.103 -22768603.834 9791791.001 10 0 59541 54000.00000 0 -6274326.581 -23770163.080 6786388.522 10 0 59541 54900.00000 0 -6533389.172 -24378019.691 3649085.465 10 0 59541 55800.00000 0 -6746919.886 -24585070.994 440833.148 10 0 59541 56700.00000 0 -6859364.812 -24397645.789 -2775990.642 10 0 59541 57600.00000 0 -6818399.007 -23835166.020 -5938799.743 10 0 59541 58500.00000 0 -6577387.730 -22929275.193 -8986025.022 10 0 59541 59400.00000 0 -6097614.255 -21722469.842 -11858322.329 10 0 59541 60300.00000 0 -5350178.156 -20266291.515 -14499738.423 10 0 59541 61200.00000 0 -4317481.895 -18619155.650 -16858810.962 10 0 59541 62100.00000 0 -2994240.985 -16843909.164 -18889580.169 10 0 59541 63000.00000 0 -1387973.279 -15005220.185 -20552491.652 10 0 59541 63900.00000 0 481054.736 -13166910.380 -21815172.122 10 0 59541 64800.00000 0 2580423.722 -11389342.610 -22653062.674 10 0 59541 65700.00000 0 4866675.362 -9726974.004 -23049897.163 10 0 59541 66600.00000 0 7286898.251 -8226177.360 -22998016.533 10 0 59541 67500.00000 0 9780719.888 -6923421.965 -22498513.301 10 0 59541 68400.00000 0 12282621.694 -5843889.548 -21561203.805 10 0 59541 69300.00000 0 14724480.390 -5000582.427 -20204429.259 10 0 59541 70200.00000 0 17038229.610 -4393959.908 -18454690.014 10 0 59541 71100.00000 0 19158530.750 -4012116.545 -16346120.657 10 0 59541 72000.00000 0 21025341.583 -3831493.015 -13919816.733 10 0 59541 72900.00000 0 22586275.735 -3818087.798 -11223026.694 10 0 59541 73800.00000 0 23798654.964 -3929116.793 -8308225.327 10 0 59541 74700.00000 0 24631169.146 -4115049.273 -5232087.252 10 0 59541 75600.00000 0 25065075.566 -4321932.794 -2054380.923 10 0 59541 76500.00000 0 25094888.480 -4493907.751 1163194.942 10 0 59541 77400.00000 0 24728531.365 -4575804.575 4358209.486 10 0 59541 78300.00000 0 23986946.831 -4515713.336 7468708.950 10 0 59541 79200.00000 0 22903181.808 -4267417.036 10434413.612 10 0 59541 80100.00000 0 21520987.353 -3792585.896 13197879.337 10 0 59541 81000.00000 0 19892992.538 -3062640.226 15705601.797 10 0 59541 81900.00000 0 18078529.125 -2060203.530 17909042.714 10 0 59541 82800.00000 0 16141198.060 -780084.732 19765559.140 10 0 59541 83700.00000 0 14146278.912 770251.968 21239218.903 10 0 59541 84600.00000 0 12158089.581 2570749.958 22301487.556 10 0 59541 85500.00000 0 10237405.282 4589354.051 22931774.504 10 0 59542 0.00000 0 8439043.227 6783111.741 23117828.612 10 0 59542 900.00000 0 6809711.335 9099738.815 22855976.129 10 0 59542 1800.00000 0 5386211.763 11479583.022 22151196.319 10 0 59542 2700.00000 0 4194069.821 13857910.023 21017033.363 10 0 59542 3600.00000 0 3246647.118 16167415.533 19475345.186 10 0 59542 4500.00000 0 2544774.541 18340861.966 17555893.225 10 0 59542 5400.00000 0 2076920.382 20313730.993 15295779.767 10 0 59542 6300.00000 0 1819886.678 22026782.429 12738742.316 10 0 59542 7200.00000 0 1740004.811 23428413.028 9934317.382 10 0 59542 8100.00000 0 1794780.353 24476716.576 6936888.693 10 0 59542 9000.00000 0 1934918.102 25141158.558 3804637.379 10 0 59542 9900.00000 0 2106641.840 25403794.317 598414.102 10 0 59542 10800.00000 0 2254210.494 25259978.525 -2619445.092 10 0 59542 11700.00000 0 2322523.567 24718535.050 -5786335.864 10 0 59542 12600.00000 0 2259704.530 23801379.008 -8840611.185 10 0 59542 13500.00000 0 2019551.394 22542606.122 -11722790.699 10 0 59542 14400.00000 0 1563749.053 20987087.152 -14376729.251 10 0 59542 15300.00000 0 863747.997 19188626.363 -16750720.618 10 0 59542 16200.00000 0 -97771.894 17207761.600 -18798513.987 10 0 59542 17100.00000 0 -1325916.098 15109298.773 -20480222.552 10 0 59542 18000.00000 0 -2813111.860 12959684.853 -21763105.856 10 0 59542 18900.00000 0 -4539187.179 10824330.143 -22622210.353 10 0 59542 19800.00000 0 -6471990.154 8764992.464 -23040855.630 10 0 59542 20700.00000 0 -8568523.424 6837333.156 -23010956.930 10 0 59542 21600.00000 0 -10776546.658 5088747.048 -22533178.033 10 0 59542 22500.00000 0 -13036580.271 3556556.732 -21616911.937 10 0 59542 23400.00000 0 -15284226.515 2266645.887 -20280090.220 10 0 59542 24300.00000 0 -17452710.876 1232587.534 -18548825.312 10 0 59542 25200.00000 0 -19475537.459 455302.119 -16456893.167 10 0 59542 26100.00000 0 -21289147.224 -76742.117 -14045066.940 10 0 59542 27000.00000 0 -22835468.021 -386796.958 -11360315.194 10 0 59542 27900.00000 0 -24064249.978 -508603.111 -8454880.671 10 0 59542 28800.00000 0 -24935088.864 -484713.970 -5385258.197 10 0 59542 29700.00000 0 -25419053.394 -364446.716 -2211092.027 10 0 59542 30600.00000 0 -25499849.119 -201548.698 1005985.498 10 0 59542 31500.00000 0 -25174471.111 -51678.768 4203550.967 10 0 59542 32400.00000 0 -24453319.172 30189.260 7319599.185 10 0 59542 33300.00000 0 -23359771.790 -7669.060 10293741.274 10 0 59542 34200.00000 0 -21929237.594 -211305.070 13068368.462 10 0 59542 35100.00000 0 -20207724.733 -618916.025 15589759.583 10 0 59542 36000.00000 0 -18249988.346 -1258998.604 17809111.527 10 0 59542 36900.00000 0 -16117333.540 -2148914.454 19683473.621 10 0 59542 37800.00000 0 -13875165.158 -3293928.068 21176568.936 10 0 59542 38700.00000 0 -11590385.626 -4686757.683 22259487.779 10 0 59542 39600.00000 0 -9328748.217 -6307658.631 22911240.924 10 0 59542 40500.00000 0 -7152274.482 -8125036.708 23119162.741 10 0 59542 41400.00000 0 -5116841.812 -10096567.421 22879156.964 10 0 59542 42300.00000 0 -3270040.080 -12170776.050 22195780.424 10 0 59542 43200.00000 0 -1649385.232 -14289014.614 21082162.914 10 0 59542 44100.00000 0 -280963.113 -16387755.283 19559763.987 10 0 59542 45000.00000 0 821440.645 -18401106.388 17657970.416 10 0 59542 45900.00000 0 1656688.825 -20263447.660 15413540.797 10 0 59542 46800.00000 0 2236104.551 -21912075.836 12869906.669 10 0 59542 47700.00000 0 2582754.724 -23289750.638 10076342.352 10 0 59542 48600.00000 0 2730234.948 -24347034.729 7087018.423 10 0 59542 49500.00000 0 2721006.919 -25044329.192 3959956.221 10 0 59542 50400.00000 0 2604358.335 -25353518.256 755903.284 10 0 59542 51300.00000 0 2434071.720 -25259153.045 -2462848.600 10 0 59542 52200.00000 0 2265901.200 -24759123.252 -5633679.478 10 0 59542 53100.00000 0 2154964.921 -23864787.148 -8694867.005 10 0 59542 54000.00000 0 2153164.654 -22600553.249 -11586797.209 10 0 59542 54900.00000 0 2306743.336 -21002930.315 -14253135.573 10 0 59542 55800.00000 0 2654085.558 -19119085.010 -16641934.473 10 0 59542 56700.00000 0 3223855.772 -17004967.592 -18706654.390 10 0 59542 57600.00000 0 4033554.584 -14723084.374 -20407078.200 10 0 59542 58500.00000 0 5088555.622 -12340010.683 -21710100.051 10 0 59542 59400.00000 0 6381664.929 -9923748.979 -22590373.153 10 0 59542 60300.00000 0 7893222.521 -7541043.037 -23030803.801 10 0 59542 61200.00000 0 9591742.611 -5254760.911 -23022882.070 10 0 59542 62100.00000 0 11435066.111 -3121456.006 -22566843.119 10 0 59542 63000.00000 0 13371977.372 -1189207.840 -21671656.322 10 0 59542 63900.00000 0 15344217.326 504167.941 -20354842.961 10 0 59542 64800.00000 0 17288808.656 1932466.672 -18642126.534 10 0 59542 65700.00000 0 19140595.383 3081944.052 -16566922.996 10 0 59542 66600.00000 0 20834890.269 3951634.066 -14169681.409 10 0 59542 67500.00000 0 22310119.026 4553124.228 -11497088.362 10 0 59542 68400.00000 0 23510350.498 4909799.774 -8601152.137 10 0 59542 69300.00000 0 24387606.888 5055590.770 -5538185.028 10 0 59542 70200.00000 0 24903857.520 5033276.931 -2367704.103 10 0 59542 71100.00000 0 25032613.031 4892423.440 848727.809 10 0 59542 72000.00000 0 24760053.810 4687036.291 4048697.947 10 0 59542 72900.00000 0 24085646.162 4473037.222 7170152.833 10 0 59542 73800.00000 0 23022221.158 4305665.513 10152597.436 10 0 59542 74700.00000 0 21595513.616 4236916.645 12938261.143 10 0 59542 75600.00000 0 19843181.080 4313125.838 15473208.462 10 0 59542 76500.00000 0 17813344.078 4572798.147 17708373.682 10 0 59542 77400.00000 0 15562708.632 5044776.168 19600500.321 10 0 59542 78300.00000 0 13154348.880 5746822.179 21112968.301 10 0 59542 79200.00000 0 10655241.374 6684674.212 22216493.961 10 0 59542 80100.00000 0 8133652.566 7851615.915 22889690.366 10 0 59542 81000.00000 0 5656486.698 9228578.827 23119477.958 10 0 59542 81900.00000 0 3286702.678 10784773.879 22901338.119 10 0 59542 82800.00000 0 1080905.795 12478827.081 22239404.913 10 0 59542 83700.00000 0 -912787.211 14260373.654 21146392.977 10 0 59542 84600.00000 0 -2656522.258 16072045.895 19643362.275 10 0 59542 85500.00000 0 -4124048.277 17851773.506 17759323.263 10 0 59543 0.00000 0 -5301568.579 19535301.785 15530689.051 10 0 59543 900.00000 0 -6188068.665 21058824.559 13000582.485 10 0 59543 1800.00000 0 -6795105.299 22361620.201 10218013.333 10 0 59543 2700.00000 0 -7146067.781 23388583.617 7236936.288 10 0 59543 3600.00000 0 -7274940.718 24092545.405 4115210.065 10 0 59543 4500.00000 0 -7224621.002 24436280.949 913476.183 10 0 59543 5400.00000 0 -7044859.997 24394123.642 -2306020.751 10 0 59543 6300.00000 0 -6789918.288 23953112.935 -5480648.034 10 0 59543 7200.00000 0 -6516032.784 23113627.328 -8548610.785 10 0 59543 8100.00000 0 -6278804.422 21889474.156 -11450164.025 10 0 59543 9000.00000 0 -6130618.265 20307431.030 -14128786.283 10 0 59543 9900.00000 0 -6118206.683 18406257.244 -16532290.677 10 0 59543 10800.00000 0 -6280460.233 16235215.949 -18613850.855 10 0 59543 11700.00000 0 -6646580.371 13852168.779 -20332920.964 10 0 59543 12600.00000 0 -7234653.419 11321322.796 -21656031.054 10 0 59543 13500.00000 0 -8050707.225 8710724.286 -22557442.099 10 0 59543 14400.00000 0 -9088291.261 6089604.415 -23019647.787 10 0 59543 15300.00000 0 -10328598.535 3525688.016 -23033713.371 10 0 59543 16200.00000 0 -11741124.623 1082577.889 -22599445.340 10 0 59543 17100.00000 0 -13284836.313 -1182676.438 -21725388.976 10 0 59543 18000.00000 0 -14909800.699 -3221724.456 -20428654.353 10 0 59543 18900.00000 0 -16559206.142 -4996686.359 -18734574.684 10 0 59543 19800.00000 0 -18171689.991 -6481477.984 -16676204.165 10 0 59543 20700.00000 0 -19683874.994 -7662635.228 -14293665.661 10 0 59543 21600.00000 0 -21033007.635 -8539605.466 -11633361.420 10 0 59543 22500.00000 0 -22159587.433 -9124495.924 -8747062.710 10 0 59543 23400.00000 0 -23009876.672 -9441291.786 -5690896.635 10 0 59543 24300.00000 0 -23538185.230 -9524579.149 -2524250.356 10 0 59543 25200.00000 0 -23708834.809 -9417828.609 691385.571 10 0 59543 26100.00000 0 -23497720.453 -9171313.523 3893611.788 10 0 59543 27000.00000 0 -22893404.329 -8839752.139 7020329.278 10 0 59543 27900.00000 0 -21897696.450 -8479773.993 10010939.570 10 0 59543 28800.00000 0 -20525698.542 -8147317.985 12807512.836 10 0 59543 29700.00000 0 -18805309.631 -7895072.007 15355901.757 10 0 59543 30600.00000 0 -16776214.209 -7770061.825 17606780.305 10 0 59543 31500.00000 0 -14488395.185 -7811490.383 19516588.191 10 0 59543 32400.00000 0 -12000233.144 -8048917.935 21048363.826 10 0 59543 33300.00000 0 -9376270.247 -8500859.122 22172450.821 10 0 59543 34200.00000 0 -6684730.681 -9173855.705 22867065.335 10 0 59543 35100.00000 0 -3994899.180 -10062063.987 23118714.234 10 0 59543 36000.00000 0 -1374464.847 -11147374.791 22922456.485 10 0 59543 36900.00000 0 1113061.125 -12400061.920 22282002.921 10 0 59543 37800.00000 0 3410748.280 -13779933.284 21209652.204 10 0 59543 38700.00000 0 5470371.986 -15237938.139 19726063.569 10 0 59543 39600.00000 0 7254173.491 -16718164.841 17859869.715 10 0 59543 40500.00000 0 8736182.611 -18160147.095 15647136.113 10 0 59543 41400.00000 0 9903048.401 -19501383.522 13130675.730 10 0 59543 42300.00000 0 10754343.269 -20679965.829 10359231.152 10 0 59543 43200.00000 0 11302327.846 -21637205.813 7386538.718 10 0 59543 44100.00000 0 11571186.394 -22320150.775 4270291.857 10 0 59543 45000.00000 0 11595764.727 -22683880.927 1071023.285 10 0 59543 45900.00000 0 11419863.902 -22693491.046 -2149072.401 10 0 59543 46800.00000 0 11094161.868 -22325671.422 -5327352.582 10 0 59543 47700.00000 0 10673851.370 -21569819.848 -8401952.601 10 0 59543 48600.00000 0 10216094.805 -20428636.064 -11312999.135 10 0 59543 49500.00000 0 9777404.728 -18918171.944 -14003786.275 10 0 59543 50400.00000 0 9411062.112 -17067333.930 -16421890.223 10 0 59543 51300.00000 0 9164682.931 -14916857.489 -18520199.900 10 0 59543 52200.00000 0 9078037.335 -12517795.872 -20257842.551 10 0 59543 53100.00000 0 9181214.824 -9929586.166 -21600985.605 10 0 59543 54000.00000 0 9493213.971 -7217773.431 -22523498.888 10 0 59543 54900.00000 0 10021017.057 -4451488.135 -23007464.140 10 0 59543 55800.00000 0 10759189.123 -1700782.420 -23043522.025 10 0 59543 56700.00000 0 11690018.650 966063.608 -22631050.172 10 0 59543 57600.00000 0 12784193.955 3485153.318 -21778169.192 10 0 59543 58500.00000 0 14001986.627 5799394.133 -20501577.020 10 0 59543 59400.00000 0 15294891.871 7860627.026 -18826215.326 10 0 59543 60300.00000 0 16607656.328 9631377.140 -16784774.992 10 0 59543 61200.00000 0 17880607.556 11086153.797 -14417050.827 10 0 59543 62100.00000 0 19052186.696 12212247.317 -11769158.614 10 0 59543 63000.00000 0 20061577.404 13009991.330 -8892630.198 10 0 59543 63900.00000 0 20851320.098 13492481.704 -5843404.852 10 0 59543 64800.00000 0 21369801.389 13684766.155 -2680737.005 10 0 59543 65700.00000 0 21573513.997 13622540.745 533957.994 10 0 59543 66600.00000 0 21428992.222 13350410.008 3738297.148 10 0 59543 67500.00000 0 20914341.945 12919785.656 6870138.801 10 0 59543 68400.00000 0 20020301.216 12386513.559 9868783.789 10 0 59543 69300.00000 0 18750787.299 11808329.813 12676145.626 10 0 59543 70200.00000 0 17122907.516 11242253.394 15237867.483 10 0 59543 71100.00000 0 15166433.503 10742025.130 17504365.077 10 0 59543 72000.00000 0 12922760.693 10355700.388 19431776.118 10 0 59543 72900.00000 0 10443395.959 10123496.121 20982799.056 10 0 59543 73800.00000 0 7788035.493 10075982.089 22127406.034 10 0 59543 74700.00000 0 5022311.784 10232691.628 22843417.271 10 0 59543 75600.00000 0 2215301.747 10601209.930 23116926.674 10 0 59543 76500.00000 0 -563102.262 11176778.091 22942571.025 10 0 59543 77400.00000 0 -3244851.189 11942429.925 22323637.720 10 0 59543 78300.00000 0 -5766319.278 12869656.658 21272008.779 10 0 59543 79200.00000 0 -8070699.849 13919572.854 19807941.550 10 0 59543 80100.00000 0 -10110118.612 15044536.073 17959689.367 10 0 59543 81000.00000 0 -11847377.629 16190153.877 15762968.257 10 0 59543 81900.00000 0 -13257257.971 17297595.323 13260278.550 10 0 59543 82800.00000 0 -14327326.875 18306110.974 10500093.249 10 0 59543 83700.00000 0 -15058215.750 19155656.169 7535927.588 10 0 59543 84600.00000 0 -15463357.205 19789507.355 4425306.882 10 0 59543 85500.00000 0 -15568191.902 20156760.868 1228652.197 10 0 59544 0.00000 0 -15408878.519 20214607.968 -1991894.422 10 0 59544 900.00000 0 -15030561.097 19930288.788 -5173683.803 10 0 59544 1800.00000 0 -14485267.418 19282641.095 -8254783.921 10 0 59544 2700.00000 0 -13829527.498 18263176.796 -11175195.682 10 0 59544 3600.00000 0 -13121813.842 16876638.811 -13878031.135 10 0 59544 4500.00000 0 -12419912.676 15141013.213 -16310631.746 10 0 59544 5400.00000 0 -11778338.521 13086994.628 -18425603.621 10 0 59544 6300.00000 0 -11245902.530 10756926.162 -20181748.722 10 0 59544 7200.00000 0 -10863538.443 8203257.558 -21544873.182 10 0 59544 8100.00000 0 -10662478.902 5486585.654 -22488456.666 10 0 59544 9000.00000 0 -10662859.692 2673358.833 -22994169.628 10 0 59544 9900.00000 0 -10872811.219 -166658.624 -23052228.439 10 0 59544 10800.00000 0 -11288075.534 -2963056.509 -22661581.791 10 0 59544 11700.00000 0 -11892164.910 -5647471.737 -21829925.145 10 0 59544 12600.00000 0 -12657054.819 -8156192.345 -20573543.399 10 0 59544 13500.00000 0 -13544381.551 -10432564.423 -18916985.380 10 0 59544 14400.00000 0 -14507093.352 -12429102.402 -16892576.976 10 0 59544 15300.00000 0 -15491484.744 -14109215.667 -14539782.945 10 0 59544 16200.00000 0 -16439527.637 -15448480.886 -11904430.346 10 0 59544 17100.00000 0 -17291400.353 -16435408.603 -9037809.177 10 0 59544 18000.00000 0 -17988107.422 -17071673.888 -5995668.343 10 0 59544 18900.00000 0 -18474079.394 -17371803.522 -2837126.935 10 0 59544 19800.00000 0 -18699642.871 -17362334.960 376477.527 10 0 59544 20700.00000 0 -18623256.662 -17080484.366 3582781.062 10 0 59544 21600.00000 0 -18213420.030 -16572381.546 6719602.009 10 0 59544 22500.00000 0 -17450172.913 -15890947.444 9726143.153 10 0 59544 23400.00000 0 -16326125.325 -15093504.530 12544163.928 10 0 59544 24300.00000 0 -14846972.900 -14239221.225 15119100.486 10 0 59544 25200.00000 0 -13031476.957 -13386497.907 17401112.614 10 0 59544 26100.00000 0 -10910909.757 -12590404.139 19346038.109 10 0 59544 27000.00000 0 -8527987.558 -11900274.126 20916237.238 10 0 59544 27900.00000 0 -5935335.052 -11357560.572 22081312.106 10 0 59544 28800.00000 0 -3193543.945 -10994036.115 22818688.016 10 0 59544 29700.00000 0 -368904.806 -10830417.021 23114046.537 10 0 59544 30600.00000 0 2469095.431 -10875466.345 22961602.480 10 0 59544 31500.00000 0 5250408.265 -11125614.015 22364219.624 10 0 59544 32400.00000 0 7907083.346 -11565110.032 21333362.796 10 0 59544 33300.00000 0 10375844.515 -12166705.034 19888886.565 10 0 59544 34200.00000 0 12600476.566 -12892830.683 18058663.671 10 0 59544 35100.00000 0 14533924.706 -13697231.517 15878059.131 10 0 59544 36000.00000 0 16140020.035 -14526980.952 13389258.740 10 0 59544 36900.00000 0 17394759.386 -15324797.750 10640463.678 10 0 59544 37800.00000 0 18287086.074 -16031566.230 7684965.513 10 0 59544 38700.00000 0 18819138.670 -16588954.396 4580118.603 10 0 59544 39600.00000 0 19005956.963 -16942019.400 1386229.296 10 0 59544 40500.00000 0 18874657.174 -17041689.698 -1834616.694 10 0 59544 41400.00000 0 18463110.954 -16847017.908 -5019765.703 10 0 59544 42300.00000 0 17818183.828 -16327107.641 -8107222.073 10 0 59544 43200.00000 0 16993607.767 -15462631.135 -11036863.927 10 0 59544 44100.00000 0 16047578.272 -14246871.613 -13751624.049 10 0 59544 45000.00000 0 15040178.272 -12686244.564 -16198611.656 10 0 59544 45900.00000 0 14030738.664 -10800274.163 -18330152.237 10 0 59544 46800.00000 0 13075247.959 -8621024.350 -20104724.315 10 0 59544 47700.00000 0 12223921.389 -6192007.274 -21487774.185 10 0 59544 48600.00000 0 11519032.832 -3566614.071 -22452392.409 10 0 59544 49500.00000 0 10993101.546 -806133.024 -22979838.770 10 0 59544 50400.00000 0 10667510.403 2022562.210 -23059905.518 10 0 59544 51300.00000 0 10551613.744 4849557.996 -22691112.141 10 0 59544 52200.00000 0 10642372.078 7604573.678 -21880728.263 10 0 59544 53100.00000 0 10924528.314 10219650.697 -20644624.677 10 0 59544 54000.00000 0 11371317.271 12631746.132 -19006955.943 10 0 59544 54900.00000 0 11945677.554 14785123.054 -16999681.205 10 0 59544 55800.00000 0 12601913.679 16633438.700 -14661933.129 10 0 59544 56700.00000 0 13287737.308 18141444.427 -12039247.726 10 0 59544 57600.00000 0 13946600.576 19286227.809 -9182670.575 10 0 59544 58500.00000 0 14520222.205 20057946.526 -6147757.420 10 0 59544 59400.00000 0 14951199.206 20460025.179 -2993489.075 10 0 59544 60300.00000 0 15185593.467 20508808.735 218877.803 10 0 59544 61200.00000 0 15175383.891 20232689.058 3427001.267 10 0 59544 62100.00000 0 14880680.604 19670743.015 6568662.598 10 0 59544 63000.00000 0 14271607.977 18870940.929 9582969.295 10 0 59544 63900.00000 0 13329777.387 17888001.822 12411529.264 10 0 59544 64800.00000 0 12049287.860 16780986.354 14999573.914 10 0 59544 65700.00000 0 10437212.629 15610728.800 17297009.114 10 0 59544 66600.00000 0 8513550.992 14437215.760 19259374.482 10 0 59544 67500.00000 0 6310646.991 13317020.996 20848693.566 10 0 59544 68400.00000 0 3872098.293 12300903.082 22034199.599 10 0 59544 69300.00000 0 1251199.583 11431665.528 22792923.839 10 0 59544 70200.00000 0 -1491016.302 10742367.961 23110136.044 10 0 59544 71100.00000 0 -4288059.941 10254962.355 22979629.199 10 0 59544 72000.00000 0 -7070496.733 9979410.790 22403843.187 10 0 59544 72900.00000 0 -9768585.912 9913321.410 21393824.899 10 0 59544 73800.00000 0 -12314939.552 10042117.934 19969024.896 10 0 59544 74700.00000 0 -14647092.621 10339736.144 18156933.623 10 0 59544 75600.00000 0 -16709878.635 10769818.854 15992562.949 10 0 59544 76500.00000 0 -18457512.829 11287360.137 13517781.647 10 0 59544 77400.00000 0 -19855296.379 11840730.571 10780516.311 10 0 59544 78300.00000 0 -20880870.544 12373998.974 7833831.927 10 0 59544 79200.00000 0 -21524967.958 12829453.198 4734908.913 10 0 59544 80100.00000 0 -21791629.026 13150213.583 1543935.922 10 0 59544 81000.00000 0 -21697873.833 13282828.209 -1677060.273 10 0 59544 81900.00000 0 -21272842.878 13179739.261 -4865424.907 10 0 59544 82800.00000 0 -20556442.516 12801514.831 -7959101.093 10 0 59544 83700.00000 0 -19597552.226 12118750.072 -10897846.727 10 0 59544 84600.00000 0 -18451869.584 11113555.395 -13624417.702 10 0 59544 85500.00000 0 -17179484.452 9780566.920 -16085693.149 99